Location: Lamoine Observatory
(44.4551°N, 68.3470°W)
Time: 08:09:19
(UTC-04:00)

Daily predictions for brighter satellites

Satellite Brightness Start Highest point End
(mag) Time Altitude Azimuth Time Altitude Azimuth Time Altitude Azimuth
Cosmos 1908 3.7 20:51:11 10° NNW 20:55:04 63° W 20:58:56 10° S
ATLAS 2AS CENTAUR R/B 4.2 20:51:07 10° SSE 20:56:09 20° ESE 21:01:25 10° ENE
Terra 4.0 20:54:33 10° E 20:56:37 13° ENE 20:58:41 10° NNE
Cosmos 1674 2.9 20:52:57 10° S 20:56:47 79° W 21:00:41 10° N
YAOGAN 6 3.7 20:53:48 10° SE 20:56:57 29° ENE 21:00:06 10° N
Cosmos 2227 Rocket 3.6 20:59:36 10° SE 21:03:27 19° E 21:07:19 10° NE
ATLAS 3B R/B 4.1 20:58:08 10° NNW 21:04:19 30° NNE 21:10:11 10° E
ERS-1 Rocket 3.7 21:02:44 10° S 21:07:39 54° W 21:12:37 10° NNW
ALOS 4.5 21:04:02 10° SSW 21:07:49 24° W 21:11:38 10° NW
Cosmos 1300 2.9 21:06:48 10° N 21:10:36 57° E 21:14:22 10° SSE
Envisat 3.1 21:06:58 10° SSE 21:12:03 81° WSW 21:17:10 10° NNW
ERBS 3.7 21:11:08 10° S 21:13:44 20° SE 21:16:19 10° ENE
MetOp-A 4.2 21:10:44 10° SSE 21:16:03 72° ENE 21:21:24 10° N
CZ-4 SHROUD 3.2 21:13:03 10° SSE 21:16:10 79° ENE 21:19:19 10° N
Tiangong 1 1.6 21:13:31 10° SW 21:16:26 38° SSE 21:19:20 10° E
Meteor 1-11 4.4 21:11:09 10° S 21:16:46 59° E 21:22:23 10° NNE
SL-16 R/B 4.0 21:13:01 10° N 21:17:06 20° NE 21:21:09 10° E
NOSS 3-1 (C) 3.4 21:12:47 10° SSW 21:18:37 72° ESE 21:25:08 10° NE
Nadezhda 2 Rocket 4.5 21:12:46 10° S 21:18:54 84° E 21:25:02 10° N
Cosmos 2333 Rocket 2.9 21:14:54 10° NNW 21:20:23 44° ENE 21:25:32 12° SE
Lacrosse 4 Rocket 3.7 21:20:14 10° N 21:23:09 17° NE 21:26:04 10° E
Cosmos 2151 3.6 21:19:30 10° SSW 21:23:39 58° W 21:27:49 10° N
ARGOS 3.5 21:21:59 11° SE 21:27:04 54° ENE 21:32:18 10° N
Cosmos 2058 2.9 21:24:06 10° S 21:28:12 86° W 21:32:20 10° N
COSMOS 2455 4.1 21:23:54 10° NNW 21:29:11 30° NE 21:34:27 10° ESE
Cosmos 2297 Rocket 3.4 21:26:15 12° SE 21:30:01 22° E 21:34:15 10° NE
Cosmos 1937 Rocket 3.8 21:25:42 10° S 21:30:41 46° ESE 21:35:39 10° NNE
COSMOS 2428 3.0 21:26:41 10° NNW 21:32:20 65° WSW 21:37:55 10° SSE
Cosmos 2219 Rocket 2.3 21:26:47 10° NNW 21:32:22 67° ENE 21:37:10 14° SE
Cosmos 1455 3.6 21:29:36 10° NNE 21:32:46 24° ENE 21:35:05 14° ESE
Cosmos 990 Rocket 4.5 21:33:38 10° S 21:38:21 38° ESE 21:43:07 10° NE
Cosmos 1726 2.2 21:36:53 10° N 21:40:40 79° W 21:44:08 12° S
Cosmos 2298 Rocket 4.1 21:36:39 10° SSW 21:41:59 87° WNW 21:47:20 10° NNE
Sich 1 3.0 21:41:17 10° S 21:45:42 88° ESE 21:50:07 10° N
Meteor 2-10 4.3 21:41:36 10° N 21:47:20 68° ENE 21:51:59 16° SSE
Cosmos 1862 Rocket 4.2 21:43:38 10° N 21:47:43 38° ENE 21:50:23 19° SE
CZ-4B R/B 3.5 21:43:40 10° NNE 21:48:58 80° ESE 21:54:08 10° SSW
Cosmos 2242 Rocket 3.6 21:46:12 10° N 21:50:42 89° W 21:54:28 15° S
CARTOSAT-1 4.4 21:47:59 17° SE 21:50:44 36° ENE 21:54:42 10° N
Cosmos 1633 Rocket 3.1 21:47:44 10° S 21:52:07 84° W 21:56:31 10° N
Meteor 1-4 Rocket 2.7 21:50:22 10° NNW 21:54:07 75° W 21:56:51 17° S
Cosmos 1980 3.7 21:49:16 10° NNW 21:54:56 73° ENE 21:59:03 19° SE
SPOT 5 4.0 21:52:15 10° SSW 21:56:34 38° W 22:01:08 10° NNW
USA 245 3.0 21:59:33 21° SSW 22:00:49 40° W 22:02:58 10° NNW
Cosmos 292 Rocket 4.2 21:59:49 10° NNW 22:04:30 57° WSW 22:08:03 17° S
Cosmos 2237 Rocket 2.2 22:01:13 10° NNW 22:06:58 83° ENE 22:10:50 22° SSE
Cosmos 1869 3.7 22:03:17 10° N 22:07:15 50° ENE 22:09:16 26° SE
IGS 5A 3.9 22:07:11 24° SE 22:09:24 47° ENE 22:13:26 10° N
H-2A R/B 2.3 22:05:52 21° SSE 22:09:31 66° ENE 22:14:56 10° N
Cosmos 2082 3.7 22:08:32 10° SSW 22:14:12 68° ESE 22:19:54 10° NNE
Cosmos 1271 Rocket 3.6 22:10:33 10° NNW 22:14:15 46° W 22:17:01 17° SSW
Cosmos 1898 Rocket 4.3 22:11:52 10° SW 22:16:55 51° WNW 22:22:01 10° NNE
DELTA 2 DEB (DPAF) 4.2 22:14:15 22° S 22:17:07 82° WSW 22:21:38 10° NNW
Landsat 7 3.8 22:14:43 22° SSE 22:17:47 87° WSW 22:22:35 10° NNW
CZ-4C R/B 3.1 22:18:51 28° S 22:20:32 71° WSW 22:24:02 10° NNW
SPOT 1/Viking Rocket 4.5 22:17:51 13° SSW 22:22:14 43° W 22:27:09 10° NNW
Iridium 2 4.1 22:19:28 17° SSW 22:22:15 63° W 22:26:06 10° N
Cosmos 1125 Rocket 4.0 22:20:15 24° SSE 22:22:54 42° ESE 22:27:53 10° NE
Cosmos 1626 2.0 22:21:48 27° S 22:23:46 82° E 22:27:33 10° N
NOSS 3-1 (A) 4.1 22:17:57 10° SW 22:23:52 60° NW 22:30:30 10° NNE
Cosmos 1346 3.1 22:22:51 29° SSW 22:24:13 74° W 22:27:16 10° N
Cosmos 44 Rocket 4.5 22:25:06 24° SE 22:25:55 25° ESE 22:30:09 10° ENE
Cosmos 1703 4.2 22:23:37 11° SSW 22:27:14 45° WNW 22:31:01 10° N
Cosmos 389 Rocket 4.1 22:29:00 10° NNE 22:31:52 22° ENE 22:32:38 21° E
Cosmos 1241 Rocket 4.5 22:27:13 10° SW 22:33:24 85° WNW 22:39:44 10° NNE
Terra 1.8 22:31:05 28° SSE 22:33:39 86° WSW 22:38:26 10° NNW
Okean 1-7 4.2 22:30:12 10° NNE 22:33:58 29° ENE 22:35:21 24° ESE
Nadezhda 1 Rocket 4.4 22:37:02 10° NNW 22:43:00 58° W 22:47:24 19° SSW
Spot 4 3.8 22:42:22 31° SSE 22:44:43 86° WSW 22:49:37 10° NNW
Cosmos 1470 Rocket 4.5 22:42:21 14° SSW 22:45:49 45° WNW 22:49:59 10° N
ATLAS 2AS CENTAUR R/B 3.0 22:38:27 10° SSW 22:46:00 85° SE 22:54:09 10° NE
Cosmos 1933 Rocket 4.5 22:43:16 14° SSW 22:46:50 47° WNW 22:51:10 10° N
Cosmos 2227 Rocket 2.5 22:41:18 10° SW 22:46:55 66° WNW 22:52:36 10° NNE
Cosmos 1703 Rocket 3.6 22:44:48 10° N 22:49:10 69° E 22:50:40 40° SSE
ERBS 3.4 22:46:56 10° WSW 22:50:19 48° NW 22:53:43 10° NE
SAR-Lupe-2 3.8 22:49:41 40° SSW 22:50:44 59° WSW 22:54:17 10° NNW
Cosmos 1900 4.3 22:46:00 10° NW 22:50:59 76° WSW 22:52:57 36° SSE
Tiangong 1 1.4 22:49:46 10° W 22:52:17 51° SW 22:52:17 51° SW
OAO 2 Rocket 4.3 22:49:20 10° WSW 22:53:39 29° S 22:53:39 29° S
ATLAS 3B R/B 2.6 22:48:47 10° NW 22:55:51 81° SW 22:59:21 31° SSE
SL-16 R/B 2.2 22:56:12 10° NNW 23:01:55 81° WSW 23:04:25 35° SSE
Lacrosse 4 Rocket 1.5 22:57:57 10° NNW 23:02:23 74° WSW 23:03:42 44° S
DMSP B5D2-2 4.4 22:58:01 10° N 23:03:12 65° WNW 23:06:47 20° SSW
Cosmos 2333 Rocket 3.5 22:59:30 10° NW 23:04:29 31° WSW 23:07:32 19° SSW
Cosmos 1709 Rocket 4.0 23:02:51 25° SSW 23:06:36 80° W 23:12:45 10° N
Cosmos 2221 Rocket 3.6 23:03:16 10° N 23:07:51 80° W 23:09:20 43° S
BREEZE-M TANK 3.6 22:51:39 10° WSW 23:07:56 85° SSE 23:11:46 10° ENE
Cosmos 1455 4.1 23:05:20 10° NW 23:08:24 23° W 23:10:08 17° SW
Aureole 2 Rocket 3.0 23:06:28 10° N 23:09:32 41° ENE 23:09:45 40° ENE
USA 238 DEB 3.9 23:03:28 10° NW 23:10:30 68° NE 23:14:41 26° SE
USA 238 3.9 23:03:34 10° NW 23:10:36 68° NE 23:14:48 26° SE
COS B Rocket 3.3 23:09:38 10° N 23:13:35 87° E 23:14:32 53° S
Cosmos 2297 Rocket 2.7 23:08:02 10° SW 23:13:36 58° WNW 23:19:12 10° NNE
Cosmos 1933 3.8 23:10:21 10° NNW 23:14:20 54° W 23:15:26 40° SW
COSMOS 2455 3.1 23:09:34 10° NW 23:15:29 57° WSW 23:17:55 34° S
Cosmos 2219 Rocket 4.1 23:11:59 10° WNW 23:15:43 18° W 23:18:54 12° SW
CZ-4C R/B 4.3 23:15:54 29° E 23:16:18 30° ENE 23:19:31 10° N
Cosmos 1689 Rocket 4.3 23:19:05 19° ENE 23:19:19 19° ENE 23:21:43 10° NNE
Cosmos 44 4.3 23:19:26 32° ESE 23:19:45 33° ESE 23:24:35 10° NE
NOSS 2-3 (E) 3.9 23:18:12 33° SSW 23:20:27 75° ESE 23:26:10 10° NE
Cosmos 1782 4.4 23:19:37 10° NNE 23:22:49 23° ENE 23:23:26 22° E
Cosmos 1932 4.5 23:18:08 10° NNW 23:24:34 82° NE 23:27:35 34° SE
Cosmos 1340 Rocket 3.6 23:29:25 36° E 23:29:25 36° E 23:32:58 10° NNE
Cosmos 374 Rocket 4.4 23:30:28 10° NW 23:34:23 82° SW 23:35:17 56° SSE
Cosmos 1603 3.7 23:30:25 10° NNW 23:36:08 77° ENE 23:38:14 40° SE
Cosmos 2251 Rocket 3.5 23:32:06 10° NNW 23:37:28 78° ENE 23:39:06 45° SE
H-2A R/B 3.0 23:37:49 10° NNE 23:41:55 43° E 23:42:10 43° ESE
CZ-4C R/B 3.2 23:36:30 10° NNW 23:43:24 62° NE 23:48:29 22° ESE
SeaSat 1 2.4 23:43:30 49° SSE 23:44:52 90° E 23:49:51 10° NNW
Cosmos 1606 4.3 23:42:53 10° NNE 23:46:03 23° ENE 23:46:28 23° E
Cosmos 2184 Rocket 3.9 23:43:47 39° S 23:46:19 89° E 23:52:31 10° N
NOSS 2-3 (C) 4.2 23:44:46 24° SW 23:47:51 71° NW 23:53:43 10° NE
Cosmos 494 Rocket 4.1 23:43:29 10° NNW 23:48:45 68° ENE 23:50:21 44° SE
H-2A R/B 4.2 23:46:30 12° SW 23:49:24 18° W 23:53:04 10° NW
ASTEX 1 3.5 23:44:56 10° NNE 23:49:47 60° E 23:50:45 50° SE
Cosmos 2237 Rocket 4.3 23:47:11 10° WNW 23:50:14 15° W 23:52:39 12° SW
Helios 1A Rocket 4.2 23:46:55 10° NE 23:50:27 28° E 23:50:27 28° E
FALCON 9 R/B 3.5 23:38:32 10° W 23:52:47 35° SSW 23:54:02 33° SSW
Cosmos 1733 Rocket 3.1 23:53:33 59° SE 23:54:05 66° E 23:58:31 10° NNE
